Total_Precipitation_Accumulation
2.28 2.18 3.16 3.23 2.69 2.12 1.96 1.93 1.74 1.59 1.60 1.59 1.40 1.28 1.22 1.16 1.00 0.86 0.78 0.72 0.72 0.72 0.78 0.76 0.76 0.82 0.89 0.86 0.78 0.98 1.05 0.94 0.84 0.83 0.97 1.10 1.20 1.36 1.55 1.81 2.14 2.40 2.13
1.86 1.85 2.93 3.11 2.63 2.08 1.80 1.78 1.74 1.60 1.63 1.54 1.49 1.34 1.27 1.17 1.01 0.88 0.74 0.73 0.74 0.75 0.73 0.74 0.79 0.79 0.84 0.92 0.90 1.02 1.02 0.86 0.74 0.80 1.12 1.37 1.35 1.39 1.54 1.63 2.02 2.28 2.08
1.47 1.52 2.25 2.85 2.59 2.10 1.80 1.70 1.71 1.64 1.70 1.63 1.58 1.40 1.32 1.19 1.08 0.94 0.84 0.89 0.89 0.83 0.77 0.73 0.80 0.83 0.83 1.01 0.99 0.97 0.92 0.83 0.82 1.03 1.54 2.24 1.81 1.45 1.53 1.57 1.81 1.74 1.78
1.35 1.41 1.69 2.37 2.28 1.88 1.64 1.62 1.73 1.69 1.78 1.71 1.55 1.35 1.26 1.24 1.19 1.07 1.01 1.09 0.90 0.81 0.76 0.77 0.84 0.92 0.89 1.00 0.97 0.91 0.86 0.91 1.07 1.25 1.68 2.18 2.20 1.71 1.66 1.76 1.78 1.70 1.75
1.32 1.38 1.84 2.35 2.14 1.86 1.64 1.70 1.79 1.80 1.81 1.63 1.43 1.23 1.23 1.27 1.25 1.24 1.24 1.17 0.93 0.84 0.78 0.79 0.86 0.90 0.90 0.94 0.89 0.85 0.83 0.95 1.24 1.34 1.61 1.97 2.36 2.08 1.70 1.76 1.80 1.76 1.89
1.33 1.41 1.76 2.22 2.08 1.85 1.67 1.76 1.81 1.87 1.88 1.77 1.52 1.27 1.25 1.26 1.25 1.24 1.29 1.14 1.01 0.90 0.80 0.81 0.87 0.91 0.90 0.91 0.92 0.86 0.89 1.01 1.13 1.35 1.65 2.04 2.26 2.02 1.66 1.71 1.82 1.98 2.02
1.23 1.26 1.46 1.95 1.96 1.80 1.72 1.88 1.93 1.95 2.02 1.99 1.70 1.47 1.36 1.28 1.26 1.29 1.32 1.19 1.11 1.01 0.94 0.94 0.95 0.95 0.91 0.94 0.90 0.87 0.87 0.90 0.95 1.20 1.46 2.02 2.06 1.85 1.69 1.71 1.73 1.83 1.95
1.34 1.24 1.20 1.64 1.81 1.76 1.73 1.81 1.88 1.91 1.92 1.93 1.72 1.56 1.42 1.29 1.22 1.31 1.37 1.24 1.16 1.03 0.96 0.97 1.00 1.04 1.01 0.98 0.95 0.92 0.89 0.77 0.76 0.97 1.26 1.75 1.97 1.90 1.74 1.78 1.88 1.86 1.95
1.50 1.44 1.29 1.32 1.51 1.73 1.80 1.79 1.76 1.74 1.77 1.81 1.61 1.53 1.38 1.26 1.15 1.20 1.26 1.18 1.17 1.14 1.11 1.06 1.09 1.11 1.03 1.03 1.02 0.97 0.93 0.77 0.80 0.96 0.99 1.55 1.95 1.94 1.72 1.72 1.93 2.05 2.07
1.69 1.57 1.35 1.28 1.33 1.36 1.51 1.64 1.75 1.78 1.76 1.80 1.59 1.44 1.33 1.21 1.06 1.09 1.05 1.05 1.14 1.24 1.31 1.29 1.25 1.17 1.15 1.08 1.02 0.94 0.88 0.72 0.80 0.85 1.10 1.45 1.92 2.04 1.85 1.65 1.65 1.71 1.78
1.44 1.36 1.41 1.40 1.38 1.40 1.34 1.39 1.64 1.74 1.75 1.63 1.53 1.41 1.26 0.98 0.82 0.88 0.91 1.12 1.25 1.40 1.47 1.49 1.43 1.35 1.24 1.07 0.99 0.88 0.75 0.72 0.84 0.92 1.28 1.66 2.03 2.16 1.91 1.57 1.49 1.43 1.50
1.11 1.09 1.18 1.21 1.35 1.38 1.24 1.45 1.71 1.56 1.45 1.23 1.25 1.11 1.06 0.95 0.88 0.74 0.85 1.19 1.35 1.41 1.40 1.49 1.55 1.35 1.06 0.80 0.76 0.72 0.65 0.64 0.69 0.81 1.26 1.86 2.10 2.14 1.92 1.67 1.52 1.48 1.55
0.94 0.92 0.90 0.96 1.05 1.17 1.31 1.54 1.82 1.88 1.69 1.47 1.23 1.12 1.10 0.97 0.85 0.78 0.80 0.91 1.04 1.09 1.00 1.05 1.05 0.90 0.79 0.73 0.72 0.62 0.61 0.60 0.67 0.78 1.35 1.87 2.09 2.15 1.98 1.86 1.82 1.80 1.79
0.78 0.89 0.74 0.64 0.80 0.97 1.09 1.22 1.48 1.55 1.49 1.38 1.17 1.06 1.12 1.07 0.95 0.92 0.88 0.92 0.94 0.95 1.01 1.00 1.04 0.97 0.80 0.71 0.69 0.70 0.67 0.64 0.70 0.89 1.32 1.71 2.04 2.23 2.16 2.14 2.15 2.06 2.04
0.78 0.86 0.77 0.65 0.64 0.72 0.79 0.89 1.03 1.20 1.29 1.30 1.23 1.04 1.05 1.08 1.04 1.03 0.96 0.98 0.88 0.83 0.92 0.99 1.02 1.04 0.93 0.79 0.74 0.73 0.78 0.72 0.70 0.82 1.08 1.42 1.87 2.27 2.41 2.27 2.10 2.03 2.09
0.68 0.81 0.80 0.70 0.68 0.70 0.67 0.68 0.71 0.86 1.01 1.14 1.14 1.06 1.10 1.11 1.06 1.10 1.05 1.00 0.94 0.86 0.90 1.09 1.06 1.08 1.04 0.95 0.80 0.78 0.79 0.75 0.72 0.77 0.92 1.21 1.47 1.75 2.14 2.42 2.27 2.09 1.99
0.64 0.71 0.77 0.75 0.77 0.80 0.76 0.74 0.62 0.67 0.76 0.89 1.02 1.05 1.12 1.07 0.98 1.02 1.02 0.95 0.93 0.95 0.97 1.04 1.07 1.11 1.01 0.94 0.91 0.84 0.80 0.76 0.68 0.77 0.78 0.89 0.94 1.17 1.55 1.93 2.20 2.20 2.13
0.71 0.76 0.82 0.82 0.85 0.87 0.88 0.87 0.80 0.84 0.90 0.94 1.07 1.04 1.02 1.07 1.03 1.01 1.05 1.03 1.06 1.10 1.09 1.12 1.18 1.17 1.10 1.10 1.09 1.04 0.86 0.85 0.76 0.77 0.77 0.79 0.85 0.82 0.98 1.19 1.51 1.81 2.06
0.64 0.69 0.75 0.83 0.85 0.86 0.89 0.95 1.08 1.12 1.13 1.11 1.15 1.10 1.00 1.01 1.04 1.16 1.21 1.24 1.21 1.24 1.26 1.22 1.25 1.16 1.16 1.19 1.12 1.13 1.01 0.96 0.89 0.75 0.82 0.86 0.86 0.80 0.83 0.75 0.83 1.01 1.36
0.52 0.57 0.63 0.70 0.88 1.00 1.05 1.04 1.18 1.24 1.31 1.40 1.44 1.31 1.17 1.20 1.33 1.51 1.60 1.51 1.49 1.50 1.50 1.47 1.54 1.42 1.29 1.32 1.21 1.17 1.06 0.94 0.97 0.93 0.89 0.88 0.92 0.88 0.82 0.72 0.69 0.60 0.74
0.37 0.44 0.52 0.59 0.76 0.88 0.96 1.07 1.24 1.40 1.57 1.73 1.83 1.71 1.55 1.52 1.69 1.84 1.78 1.87 1.88 1.76 1.78 1.84 1.89 1.86 1.65 1.50 1.55 1.44 1.15 0.90 0.96 0.92 0.87 0.90 0.95 1.06 1.09 0.95 0.82 0.73 0.69
0.26 0.30 0.38 0.47 0.54 0.67 0.85 1.10 1.31 1.58 1.66 1.74 1.86 1.89 1.81 1.74 1.92 1.97 2.05 2.15 2.19 2.19 2.14 2.04 2.17 2.32 2.04 1.77 1.88 2.16 1.77 1.36 0.98 0.77 0.83 0.87 0.96 1.20 1.27 1.09 0.90 0.82 0.81
0.21 0.22 0.30 0.42 0.54 0.76 1.00 1.33 1.62 1.88 1.96 2.00 1.94 1.96 2.02 2.07 2.16 2.19 2.23 2.30 2.32 2.17 2.18 2.29 2.43 2.77 2.57 2.19 1.98 2.24 2.08 1.76 1.43 0.99 0.88 0.92 1.00 1.17 1.29 1.31 1.19 1.12 1.03
0.21 0.26 0.38 0.56 0.75 1.00 1.33 1.70 1.96 2.21 2.33 2.16 2.10 2.11 2.10 2.07 2.12 2.23 2.22 2.21 2.19 2.12 2.19 2.26 2.32 2.73 2.93 2.64 2.30 1.91 1.70 1.66 1.73 1.45 1.06 0.99 1.07 1.07 1.19 1.27 1.22 1.28 1.26
0.35 0.43 0.59 0.86 1.16 1.42 1.64 1.83 2.05 2.19 2.22 2.17 2.09 2.07 2.01 1.99 1.97 2.00 2.01 2.10 2.12 2.16 2.22 2.38 2.51 2.78 2.80 2.80 2.62 2.40 2.18 1.86 1.51 1.58 1.52 1.25 1.18 1.08 1.17 1.30 1.35 1.42 1.45
0.52 0.67 0.85 1.05 1.34 1.52 1.63 1.72 1.90 2.04 2.09 2.08 2.05 2.05 2.05 2.02 1.93 1.86 1.83 1.91 2.04 2.19 2.23 2.33 2.49 2.73 2.84 2.92 2.83 2.56 2.47 2.30 2.01 1.88 1.61 1.46 1.46 1.24 1.20 1.24 1.29 1.42 1.56